www.pogodaiklimat.ru

Погода и климат >> Архив погоды >> Лаос >> Аттапы


ПОГОДА в Аттапы

  • Прогноз погоды в Аттапы
  • Монитор погоды в Аттапы

АРХИВ ПОГОДЫ в Аттапы

Время (UTC), дата Ветер
(напр.,м/с)
 
Видим.   Явления Облачность Т
(С)
Тd
(С)
f
(%)
Тe
(С)
Тes
(С)
Комфортность P
(гПа)
Po
(гПа)
Тmin
(С)
Tmax
(С)
R
(мм)
R24
(мм)
S
(см)
03 12.03 СВ 1 8000 м в посл. час дождь {туман} 8/5 600 м
[Cu med, cong Ac lent Ci sp]
+28.0 +23.6 77 +38 +45 очень
душно
1012.4 1001.7 0.9
06 12.03 Ю 1 8000 м мгла {туман} 5/4 600 м
[Cu med, cong Ci sp]
+35.0 +22.6 49 +45 +57 опасность
перегрева
1009.9 998.5 0.6
09 12.03 Ю 3 8000 м мгла {туман} 8/5 600 м
[Cu med, cong Ac lent Ci sp]
+36.7 +21.4 41 +44 +45 опасность
перегрева
1006.3 996.0
00 13.03 штиль 0 6000 м слаб. дождь 10/8 600 м
[Cu Sc Ac As]
+25.8 +24.2 91 +36 +36 очень
душно
1011.9 1001.1 +25.4 7
03 13.03 штиль 0 8000 м в посл. час дождь {туман} 10/8 600 м
[Cu Sc Ac As]
+26.0 +24.6 92 +37 +38 очень
душно
1013.5 1002.7 6
06 13.03 В 1 8000 м мгла {туман} 10/8 600 м
[Cu Sc Ac As]
+27.5 +24.6 84 +39 +40 очень
душно
1011.9 1001.1 6
09 13.03 штиль 0 8000 м мгла {туман} 9/6 600 м
[Cu Sc Ac As]
+30.5 +24.8 72 +44 +45 опасность
перегрева
1009.0 998.3
12 13.03 С 1 3000 м дымка {туман} 5/4 600 м
[Cu med, cong Ci sp]
+29.0 +25.5 81 +43 +43 опасность
перегрева
1009.9 999.2 +31.0 6
00 14.03 штиль 0 6000 м дымка 6/4 600 м
[Cu med, cong Ac trans Ci sp]
+24.5 +23.0 91 +32 +34 очень
душно
1003.0 +24.3 6
03 14.03 Ю 1 8000 м мгла {туман} 5/4 600 м
[Cu med, cong Ci sp]
+30.0 +22.7 65 +40 +50 очень
душно
1013.6 1003.0
06 14.03 ЮЗ 1 10 км 5/4 600 м
[Cu med, cong Ci sp]
+34.2 +22.7 51 +44 +56 опасность
перегрева
1010.2 999.8
09 14.03 Ю 1 10 км 5/4 600 м
[Cu med, cong Ci sp]
+35.6 +22.8 48 +45 +48 опасность
перегрева
1007.7 997.3
00 15.03 штиль 0 8000 м дымка 9/6 600 м
[Cu Sc Ac As]
+26.2 +23.0 83 +35 +35 очень
душно
1012.3 1001.5 +26.0
03 15.03 штиль 0 8000 м мгла {туман} 9/6 600 м
[Cu Sc Ac As]
+29.8 +22.5 65 +39 +43 очень
душно
1015.3 1002.7
06 15.03 Ю 1 10 км 8/5 600 м
[Cu med, cong Ac lent Ci sp]
+34.0 +25.6 62 +49 +57 опасность
перегрева
1012.0 1001.3
09 15.03 Ю 1 10 км 5/4 600 м
[Cu med, cong Ci sp]
+35.0 +26.0 60 +51 +54 опасность
перегрева
1002.8 998.3
12 15.03 штиль 0 3000 м дымка {туман} 5/4 600 м
[Cu med, cong Ci sp]
+32.0 +23.4 60 +43 +43 опасность
перегрева
1009.7 999.0 +35.5
00 16.03 штиль 0 8000 м дымка 5/4 600 м
[Cu med, cong Ci sp]
+25.0 +22.0 83 +32 +33 очень
душно
1013.0 1002.3 +24.7
03 16.03 В 1 10 км 3/3 600 м
[Cu hum Ci fib]
+31.5 +20.2 51 +38 +51 опасность
солнечного
удара
1013.7 1003.1
06 16.03 СВ 1 10 км 5/4 600 м
[Cu med, cong Ci sp]
+36.2 +20.7 41 +43 +56 опасность
перегрева
1010.8 1000.4
09 16.03 СВ 1 10 км 5/4 600 м
[Cu med, cong Ci sp]
+37.5 +21.5 40 +45 +48 опасность
перегрева
1008.0 997.3
00 17.03 штиль 0 8000 м дымка 3/3 600 м
[Cu hum Ci fib]
+25.4 +21.0 77 +32 +34 очень
душно
1013.1 1002.3 +25.2
09 17.03 Ю 1 10 км 6/4 600 м
[Cu med, cong Ac trans Ci sp]
+37.2 +22.9 44 +47 +49 опасность
перегрева
1006.4 996.1
12 17.03 штиль 0 3000 м дымка {туман} 5/4 600 м
[Cu med, cong Ci sp]
+33.3 +22.2 52 +42 +42 опасность
перегрева
1007.5 997.0 +37.2
00 18.03 штиль 0 8000 м дымка 6/4 600 м
[Cu med, cong Ac trans Ci sp]
+25.5 +21.3 78 +32 +34 очень
душно
1012.0 1001.2 +25.5
03 18.03 В 1 8000 м мгла {туман} 5/4 600 м
[Cu med, cong Ci sp]
+30.5 +21.1 57 +38 +49 очень
душно
1013.4 1002.8
06 18.03 Ю 1 8000 м мгла {туман} 3/3 600 м
[Cu hum Ci fib]
+35.0 +19.7 41 +41 +56 опасность
перегрева
1009.4 998.6
09 18.03 С 1 8000 м мгла {туман} 3/3 600 м
[Cu hum Ci fib]
+37.5 +19.4 35 +42 +46 опасность
перегрева
1005.5 995.2
00 19.03 штиль 0 6000 м дымка 6/4 600 м
[Cu med, cong Ac trans Ci sp]
+21.9 +19.2 85 +27 +28 душно 1011.5 1000.6 +22.7

 

Местоположение метеостанции Аттапы (Лаос): широта 14.82 долгота 106.82 высота над уровнем моря 105 м.

В архиве по умолчанию представлена погода в Аттапы за последнюю неделю. Архивные данные за месяц целиком и за предыдущие месяцы, начиная с января 2011 года, Вы можете получить, выбрав интересующий диапазон дат из раскрывающегося списка и нажав кнопку "Ввод!".


*Определитесь, кто Вы:
робот инопланетянин человек

Внимание! Время в таблицах - всемирное. Для получения местного времени необходимо прибавить поправку, которая равна 7 ч.

Смотрите также архив погоды в соседних городах и на ближайших метеорологических станциях:

Погода в Секонге (Лаос) (60 км)
Погода в Сараване (Лаос) (108 км)
Погода в Паксе (Лаос) (117 км)
Погода в Плейку (Вьетнам) (158 км)
Погода в Хюэ (Вьетнам) (197 км)
Погода в Куангнгае (Вьетнам) (213 км)
Погода в Дананге (Вьетнам) (215 км)
Погода в Убонратчатхани (Таиланд) (216 км)
Погода в Буонметхуоте (Вьетнам) (274 км)
Погода в Си Сакет Агромете (Таиланд) (277 км)

Пояснения к столбцам:

Ветер - указаны скорость ветра в м/с - средняя за 10 мин, порывы в срок и между сроками (в фигурных скобках) и направление, откуда дует ветер: С - северный, СВ - северо-восточный, В - восточный, ЮВ - юго-восточный, Ю - южный, ЮЗ - юго-западный, З - западный, СЗ - северо-западный.
Видимость - горизонтальная дальность видимости в метрах или километрах. При видимости от 1 до 10 км при отсутствии осадков обычно наблюдается дымка, при ухудшении видимости до 1 км и менее - туман. В сухую погоду видимость может ухудшаться дымом, пылью или мглою.
Явления - указаны атмосферные явления, наблюдавшиеся в срок или в последний час перед сроком; фигурными скобками обозначены явления, наблюдавшиеся между сроками (за 1-3 часа до срока); квадратными скобками обозначены град или гололедные отложения с указанием их диаметра в мм.
Облачность - указаны через наклонную черту общая и нижняя облачность в баллах и высота нижней границы облаков в метрах; квадратными скобками обозначены формы облаков: Ci - перистые, Cs - перисто-слоистые, Cc - перисто-кучевые, Ac - высококучевые, As - высокослоистые, Sc - слоисто-кучевые, Ns - слоисто-дождевые, Cu - кучевые, Cb - кучево-дождевые. Подробнее классификацию облаков см. в Атласе облаков (PDF).
T - Температура воздуха - температура, измеренная на высоте 2 м над землей.
Td - Температура точки росы - температура, при понижении до которой содержащийся в воздухе водяной пар достигнет насыщения.
f - Относительная влажность воздуха - влажноcть воздуха, измеренная на высоте 2 м над землей.
Te - Эффективная температура - температура, которую ощущает одетый по сезону человек в тени. Характеристика душности погоды. При расчете учитывается влияние влажности воздуха и скорости ветра на теплоощущения человека.
Tes - Эффективная температура на солнце - температура, которую ощущает человек, с поправкой на солнечный нагрев. Характеристика знойности погоды. Зависит от высоты солнца над горизонтом, облачности и скорости ветра. Ночью, в пасмурную погоду, а также при ветре 12 м/с и более поправка равна нулю.
P - Атмосферное давление - приведенное к уровню моря атмосферное давление.
Po - Атмосферное давление - измеренное на уровне метеостанции атмосферное давление.
Tmin - Минимальная температура - минимум температуры воздуха на высоте 2 м над землей.
Tmax - Максимальная температура - максимум температуры воздуха на высоте 2 м над землей.
R - Количество осадков - Количество выпавших осадков за период времени, мм. При наведении курсора мыши на число - период времени, за который выпало указанное количество осадков.
R24 - Количество осадков - Количество выпавших осадков за 24 часа, мм.
S - Снежный покров - Высота снежного покрова, см. При наведении курсора мыши на число - состояние снежного покрова и степень покрытия местности в баллах.